Wind_Speed
121 117 114 110 107 105 102 100 99 97 95 93 91 89 87 84 81 78 75 73 72 72 71 68 65 61 59 58 56 55 54 53 52 51 49 49 49 50 49 48 48 48 47 47 48 50 51 54 58 63 66 69 73 78 83 87 91 95 99 104 110 116 122 128 134 140 145 148 149 151 151 152 153 154 157 159 161 164 166 168 169 169 171 174 177
118 115 111 108 105 102 100 98 96 94 91 89 87 85 82 80 78 75 72 70 71 70 68 66 63 60 58 57 55 53 53 52 51 50 49 49 49 49 49 48 48 48 47 47 48 49 50 52 55 60 65 68 70 75 81 85 89 92 96 100 105 109 115 120 126 133 139 143 145 148 150 152 153 154 155 157 159 161 163 165 167 169 169 171 174
115 113 110 106 103 100 97 95 92 90 88 85 84 81 79 77 75 72 69 69 69 69 67 64 61 58 57 56 53 52 52 51 50 49 48 49 49 49 49 48 48 48 47 47 47 47 49 52 54 57 62 67 69 72 78 83 87 90 94 97 101 105 109 114 119 126 132 137 141 145 148 150 153 155 155 155 156 158 160 162 165 167 168 169 171
113 111 108 105 102 98 94 91 89 87 84 82 80 79 77 75 73 69 68 67 68 67 65 62 59 57 56 54 52 52 51 50 49 48 48 48 48 48 48 49 48 47 47 47 48 47 48 51 54 56 59 63 67 70 74 79 85 89 92 95 99 103 107 110 115 120 126 131 136 140 144 148 152 155 156 157 156 156 157 159 161 164 166 168 169
108 107 105 102 99 95 91 88 85 83 81 79 78 76 75 73 71 68 67 66 66 65 64 61 57 56 54 53 51 51 50 49 48 48 47 48 48 48 48 48 48 47 47 47 47 47 47 50 53 55 57 59 64 69 72 76 81 86 90 93 97 101 105 109 112 116 121 126 130 134 139 144 148 152 156 158 159 158 157 158 159 161 164 166 168
101 100 100 98 95 92 89 86 83 80 78 76 75 75 73 71 69 67 66 65 64 63 62 59 56 54 53 51 50 50 49 48 47 46 47 47 47 48 48 48 48 47 47 48 47 46 47 49 53 55 56 57 60 65 70 73 78 82 87 91 94 98 102 106 110 114 118 122 126 129 132 137 143 148 152 157 159 160 159 159 159 160 162 164 166
94 94 95 94 93 91 88 85 82 79 77 75 74 73 72 69 67 65 64 63 62 61 60 57 54 53 51 49 49 49 48 47 46 45 46 47 48 48 48 48 47 47 47 48 47 46 47 49 52 54 55 55 57 62 67 71 75 79 83 88 92 95 99 102 106 111 115 119 123 126 127 130 135 141 146 151 156 159 160 160 160 161 161 163 165
90 91 91 91 90 88 86 83 81 78 77 75 74 72 71 68 65 63 62 62 61 59 57 55 53 51 49 48 49 48 47 45 44 45 46 47 48 48 48 47 47 47 47 48 47 46 47 49 51 52 53 54 55 59 64 68 72 76 79 84 89 92 95 99 102 106 111 116 120 123 125 126 129 134 139 144 149 154 158 160 161 162 162 163 164
88 89 90 88 86 84 81 79 77 76 75 74 72 71 69 67 64 61 60 60 59 57 55 52 51 49 48 48 48 47 46 44 43 44 46 47 47 47 47 46 46 47 47 47 46 46 48 50 50 51 52 53 55 58 61 65 69 73 76 80 84 88 92 95 98 102 106 111 116 120 122 123 125 129 133 138 143 148 153 157 159 160 161 162 163
85 86 87 86 84 80 77 75 74 72 71 71 70 69 67 65 62 60 59 59 57 55 53 51 49 48 48 47 47 46 44 43 43 44 45 46 47 47 46 46 46 47 47 47 46 46 48 50 50 50 50 52 54 56 59 63 66 69 73 77 80 84 88 91 94 97 101 106 111 116 119 121 123 125 129 133 138 143 147 151 155 157 159 160 162
82 82 83 83 81 78 74 72 70 69 68 68 67 66 65 63 60 58 58 57 55 53 51 49 47 47 47 47 46 45 44 42 42 43 45 46 46 46 45 45 46 47 47 46 45 46 48 49 49 48 49 51 54 55 57 60 63 66 70 74 77 80 83 87 91 94 97 101 105 110 115 118 120 122 125 129 133 138 142 146 149 153 156 158 160
79 78 78 78 77 75 72 69 67 66 66 65 64 64 62 60 58 57 56 54 53 51 50 48 46 46 46 46 45 44 43 42 42 43 44 45 45 44 44 45 46 46 46 45 44 46 48 49 48 46 47 51 53 54 55 58 61 63 67 71 74 77 80 83 87 90 93 97 101 105 110 114 117 120 122 125 128 132 137 141 145 148 151 154 157
77 75 73 73 72 71 68 66 64 63 63 62 61 60 58 56 55 55 54 52 51 50 48 46 45 45 45 45 44 43 42 41 42 43 44 43 43 43 44 45 46 46 45 44 44 46 48 49 47 45 46 50 52 52 53 56 59 61 63 67 71 74 77 80 84 87 90 94 97 101 104 109 112 116 119 122 124 127 131 136 140 143 146 149 153
75 72 70 68 68 67 65 63 61 60 60 59 58 57 55 54 54 53 52 50 50 49 47 45 44 45 45 44 43 42 41 40 41 42 42 42 41 42 43 44 45 44 43 43 43 45 47 48 47 44 45 48 50 51 52 54 57 59 61 64 68 71 74 77 80 84 87 90 93 96 100 104 107 111 114 118 120 123 126 130 135 139 142 145 148
74 71 68 65 64 63 62 60 59 58 57 56 55 54 53 52 52 51 49 48 48 47 45 44 44 44 44 43 42 41 40 40 41 41 41 40 40 41 42 43 43 43 42 42 43 45 46 47 46 44 45 47 49 50 51 52 55 57 59 62 65 68 71 74 77 80 84 87 90 93 96 99 103 106 110 113 117 120 123 126 131 135 139 142 145
74 70 68 65 63 61 59 57 56 55 54 54 53 51 51 51 50 48 47 47 47 45 44 43 43 43 43 42 41 40 38 39 40 40 39 39 39 40 41 41 42 42 41 42 43 44 45 46 46 45 44 46 47 49 49 50 52 55 57 60 62 65 68 71 74 77 80 84 87 89 92 95 98 101 105 109 113 117 120 123 127 131 134 138 142
74 70 68 65 63 60 58 55 54 53 52 51 50 49 49 48 47 46 46 46 45 44 43 42 42 42 42 41 40 38 38 38 39 38 37 37 38 40 40 41 41 41 41 42 43 43 44 45 46 45 44 45 46 47 48 49 50 53 55 58 60 63 66 68 70 74 77 81 83 86 89 91 94 97 100 104 109 112 116 119 123 126 130 134 138
74 70 67 64 62 60 57 54 52 51 50 49 48 48 47 46 45 44 44 44 43 42 41 41 41 41 41 40 39 37 37 38 38 36 36 36 38 39 40 40 40 40 40 42 42 43 43 44 45 45 44 44 45 46 47 47 48 51 53 55 58 61 63 65 67 70 74 78 80 83 85 88 90 92 95 99 103 107 111 114 118 121 126 130 134
73 69 67 64 61 58 56 53 51 49 49 48 47 46 45 44 43 43 42 42 41 41 40 40 40 40 39 39 38 37 36 37 36 35 35 36 37 38 39 39 39 39 40 41 42 42 43 44 45 44 44 44 44 45 46 46 46 48 51 53 55 57 61 64 65 67 70 74 77 80 82 84 86 88 91 95 98 102 106 109 113 116 120 125 130
72 68 65 63 60 56 54 52 50 48 48 47 46 44 43 41 41 41 40 40 40 40 39 39 39 39 38 38 38 36 36 36 35 34 34 35 37 38 38 38 37 38 40 41 41 41 42 44 44 44 44 44 43 43 44 45 45 46 49 51 52 55 59 62 62 63 66 70 73 76 78 81 83 85 87 90 93 97 101 104 108 111 115 119 124
72 67 63 61 58 55 52 50 49 47 46 45 44 42 40 39 39 39 39 39 39 39 38 38 37 37 38 37 37 36 35 34 34 34 34 35 36 37 37 37 36 37 39 40 40 40 42 43 43 43 43 43 43 42 43 44 45 45 46 48 49 53 58 60 60 61 63 66 69 72 75 77 79 81 83 85 89 92 96 99 102 106 110 114 118
72 68 63 60 58 55 52 49 47 46 45 43 42 40 39 38 38 37 37 38 38 37 37 37 36 36 37 37 36 35 33 33 33 33 33 34 35 36 37 36 35 36 38 38 39 40 41 42 42 42 42 43 43 42 42 43 44 43 44 45 48 51 55 57 57 58 59 62 65 69 71 74 76 78 80 82 84 87 90 93 96 100 104 109 113
73 69 64 60 58 55 52 49 47 45 44 42 41 39 38 37 36 36 36 36 36 36 36 36 35 36 36 36 36 34 32 32 33 33 33 33 35 36 36 35 35 36 36 37 38 39 40 41 40 40 41 42 42 42 42 42 42 42 41 43 46 49 52 54 54 55 57 59 62 65 67 70 72 74 76 78 80 82 85 89 92 96 100 104 109
74 69 65 60 57 55 51 48 46 45 43 42 41 39 38 37 35 35 35 35 35 35 35 35 35 35 36 36 35 33 32 32 33 33 32 33 34 35 36 35 35 35 36 37 38 38 39 40 40 39 40 41 42 42 41 41 41 40 40 41 43 46 49 51 51 52 54 56 58 61 63 66 68 70 72 73 76 80 83 86 89 92 96 100 104
73 69 64 59 56 53 50 47 45 44 43 42 41 39 37 36 34 34 34 34 35 35 35 34 34 35 35 35 33 32 31 32 32 32 32 32 34 35 36 35 35 35 35 36 37 38 39 39 39 39 39 40 40 41 41 40 40 39 39 39 40 43 46 48 49 49 51 53 55 57 60 62 64 66 68 70 73 77 81 84 86 89 92 95 99
71 68 63 58 54 52 49 46 44 43 42 41 40 38 37 35 34 34 34 34 34 34 34 33 34 35 35 34 32 31 31 31 32 32 32 32 34 35 35 35 35 35 35 36 36 37 38 38 38 38 38 38 39 40 40 40 39 38 37 37 39 41 43 45 46 47 48 51 53 55 57 59 61 63 65 67 70 73 76 79 83 85 88 91 94
69 66 62 58 53 50 48 45 43 41 41 40 39 38 36 35 34 34 33 33 33 33 33 33 33 34 33 33 32 31 31 31 31 31 31 33 34 34 35 35 35 36 36 35 36 37 37 37 38 38 38 37 38 38 39 39 38 37 36 36 37 39 40 42 43 44 45 47 50 52 54 57 59 61 62 64 65 68 71 75 79 82 84 87 90
68 64 60 57 53 49 46 44 42 40 39 39 38 38 37 35 34 34 33 33 33 33 33 33 33 33 33 32 32 31 31 31 31 31 32 33 33 34 34 35 36 36 36 35 35 36 37 37 37 37 37 37 37 37 38 38 37 37 36 35 36 37 38 39 40 41 43 45 47 50 52 55 57 58 60 61 62 64 67 70 74 78 80 83 86
67 63 59 55 52 49 46 44 42 39 38 38 37 37 37 35 34 34 33 33 33 33 33 33 33 32 32 32 31 31 31 31 31 32 32 33 33 33 34 35 36 36 36 35 35 36 36 36 36 36 36 36 36 36 37 37 37 36 36 35 35 35 36 37 38 39 40 42 45 47 50 52 55 56 57 58 59 60 63 66 69 73 76 80 83
66 63 59 56 52 48 46 44 42 40 38 37 37 36 36 35 34 34 33 33 33 33 33 33 32 31 31 31 31 31 32 32 32 32 33 33 33 33 34 35 36 36 35 35 35 35 35 35 35 35 35 35 35 35 36 36 37 36 35 34 34 34 34 35 36 37 38 40 42 44 47 50 52 53 54 55 56 58 60 63 65 69 73 76 79
64 61 59 56 53 49 46 44 42 40 38 36 36 36 35 35 34 34 33 34 34 33 33 32 31 31 31 31 31 32 32 32 32 33 33 33 33 34 34 35 36 35 35 35 35 35 34 34 35 35 35 35 35 35 35 35 36 36 35 34 34 33 33 33 34 35 36 38 40 42 44 47 49 51 52 52 54 56 58 60 62 65 68 71 74
63 59 57 56 54 50 47 44 43 41 38 36 35 35 35 34 34 33 33 33 33 33 32 32 31 31 30 31 31 32 32 33 33 34 34 33 33 34 34 35 35 34 34 35 35 35 34 34 34 34 34 34 34 34 34 35 35 35 35 35 34 33 33 32 33 34 35 37 38 40 42 44 45 47 49 50 52 54 56 57 59 61 63 66 69
62 58 55 55 54 51 48 44 42 41 39 37 35 34 34 34 34 33 33 33 33 32 32 32 31 31 30 30 31 32 33 33 34 34 34 34 34 34 34 35 35 34 34 35 35 35 34 34 34 34 34 34 34 33 34 34 34 34 34 34 34 33 32 32 32 32 33 35 37 38 40 41 43 44 46 48 50 52 54 55 56 58 60 62 64
61 57 53 52 52 52 49 46 43 41 39 37 35 34 34 34 34 33 33 33 32 32 32 31 31 30 30 31 31 32 33 34 34 35 35 35 34 34 35 35 35 34 34 35 35 35 34 34 34 34 34 33 33 33 33 34 34 34 34 34 34 33 33 32 32 32 32 33 35 36 38 39 40 41 43 45 47 49 51 53 54 55 57 59 60
60 58 54 50 50 50 49 46 44 41 39 38 36 35 34 33 33 34 33 33 33 32 32 31 31 31 31 31 32 32 33 34 35 35 35 35 35 35 36 36 35 34 34 34 35 35 34 34 34 34 34 33 33 33 33 33 33 33 33 33 33 33 33 32 32 32 32 32 33 34 36 37 38 39 40 42 44 46 49 51 52 53 54 56 57
59 58 55 51 48 48 48 47 44 42 40 38 36 35 34 34 34 34 34 34 33 33 32 32 31 31 31 32 32 33 33 34 35 35 36 36 36 36 36 36 36 35 34 34 34 34 34 34 34 34 34 33 33 33 32 32 32 32 32 32 32 32 32 32 32 32 32 32 32 33 34 35 36 37 38 40 41 43 45 48 50 51 52 53 54
55 55 54 52 48 47 47 46 44 42 40 38 37 35 35 34 34 34 34 34 34 34 33 33 32 32 32 33 33 33 34 35 35 36 36 36 37 37 37 37 36 36 35 35 35 34 34 34 34 34 34 33 33 33 32 32 32 32 31 32 32 32 32 32 32 32 32 32 32 32 33 33 34 35 36 38 39 40 42 45 47 49 51 51 52
54 52 51 50 48 46 45 45 44 42 41 39 38 36 35 35 35 35 35 35 35 35 34 34 34 33 33 33 34 34 35 35 36 36 37 37 37 38 38 38 37 37 36 35 35 35 34 34 34 34 34 34 33 33 33 32 32 31 31 31 31 32 32 32 32 32 32 32 32 32 32 33 33 34 35 36 37 38 40 41 44 46 48 50 51
53 50 49 48 47 45 44 44 44 43 41 40 38 37 36 35 35 35 35 35 36 36 36 35 35 34 34 34 34 35 35 36 36 37 37 37 38 38 38 38 38 38 37 36 36 35 35 35 35 34 34 34 34 34 33 33 32 31 31 31 31 31 32 32 33 33 32 32 32 32 32 32 33 33 34 35 36 37 38 39 41 43 45 47 49
51 50 48 48 47 45 44 43 43 43 42 41 39 38 37 36 35 36 36 36 36 37 37 37 36 36 35 35 35 35 36 36 37 37 38 38 38 39 39 39 39 38 38 38 37 36 36 36 36 35 35 35 35 34 34 33 32 32 31 31 31 31 32 32 33 33 33 33 32 32 32 32 32 33 34 34 35 36 37 38 39 40 42 44 46
49 48 47 47 47 46 44 43 42 42 42 41 40 39 37 36 36 36 36 37 37 37 37 38 38 38 37 37 37 37 37 37 38 38 38 39 39 39 39 39 39 39 39 39 38 38 37 37 37 37 36 36 36 35 35 34 33 33 32 32 32 32 32 32 33 33 33 33 33 33 33 32 32 33 33 34 35 36 36 37 38 39 40 42 43
48 48 46 46 47 47 45 43 42 42 42 41 40 39 38 37 36 36 37 37 38 38 38 39 39 39 39 40 39 39 38 38 39 39 39 40 40 40 40 40 40 40 40 40 39 39 39 38 38 38 38 37 37 36 36 35 34 34 33 33 33 33 33 33 33 33 33 33 34 34 34 33 33 33 33 34 35 35 36 36 37 38 39 40 42
47 47 47 46 46 46 46 44 42 41 42 41 41 40 39 38 37 37 37 37 38 38 38 39 39 40 41 41 41 41 40 40 40 40 40 41 41 41 41 41 41 41 41 41 41 40 40 40 40 39 39 39 38 38 37 36 36 35 35 34 34 34 34 34 34 34 34 34 34 34 34 34 34 34 34 34 35 35 36 36 37 38 38 39 40
47 47 47 46 45 45 46 45 44 42 42 42 42 41 40 39 38 37 37 37 38 38 38 38 39 41 42 43 43 42 42 42 42 42 42 42 42 42 42 42 42 42 42 42 42 42 41 41 41 41 40 40 40 40 39 38 37 37 36 36 36 35 35 35 35 35 35 35 35 35 35 35 35 35 35 35 35 36 36 36 37 38 38 39 39
48 47 47 47 47 46 45 46 46 44 43 42 42 42 41 40 39 38 38 37 38 38 38 38 39 40 42 43 43 44 44 44 44 44 43 43 43 43 43 43 43 43 43 43 43 43 43 43 42 42 42 42 41 41 41 40 39 39 38 38 38 37 37 36 36 36 36 36 36 36 36 36 36 36 36 37 37 37 37 37 37 38 38 39 39
50 49 48 48 48 47 46 46 46 46 45 43 43 42 42 41 40 39 39 38 38 38 39 39 39 39 41 42 43 44 44 45 45 45 45 45 45 45 44 44 44 44 44 44 44 44 44 44 44 44 43 43 43 42 42 42 41 41 40 40 40 39 39 38 38 38 38 38 38 38 37 37 37 37 37 38 38 38 38 38 38 38 39 39 39
51 50 49 48 47 47 47 46 46 46 46 45 44 43 42 42 41 40 39 39 39 39 39 39 39 39 40 41 42 43 44 45 46 47 47 47 46 46 46 45 45 45 45 45 45 45 45 45 45 45 45 45 44 44 43 43 43 42 42 42 42 42 41 40 40 39 39 39 39 39 39 39 38 38 38 39 39 39 39 40 40 40 40 40 40
52 50 49 48 47 47 47 46 46 46 45 45 45 44 43 42 41 41 40 40 40 40 40 40 40 40 40 40 41 42 44 45 46 47 48 48 47 47 47 47 47 47 47 46 46 46 46 46 46 46 46 46 46 46 45 45 44 44 44 44 44 43 43 43 42 42 41 41 41 41 41 40 40 40 40 40 40 40 41 41 41 41 41 41 41
52 51 50 49 47 47 46 46 46 46 45 44 44 44 44 43 42 41 41 41 41 41 41 41 41 41 41 41 41 42 43 44 45 46 47 48 48 48 48 48 48 48 48 48 48 47 47 47 47 47 47 47 47 47 47 46 46 46 46 45 45 45 45 45 44 44 44 43 43 43 42 42 42 42 41 41 41 42 42 42 43 43 43 43 43
52 51 50 50 49 48 46 46 46 46 46 45 44 43 43 43 42 41 41 41 42 42 42 42 42 42 42 42 42 42 43 44 44 45 46 47 48 48 49 49 49 49 49 49 49 49 48 48 48 48 48 48 48 48 48 47 47 47 47 47 46 46 46 46 46 46 45 45 45 45 44 44 43 43 43 43 43 43 43 44 44 44 44 44 44
51 50 50 50 49 48 47 46 45 45 45 45 45 44 43 42 42 42 41 41 41 42 42 42 43 43 43 43 43 43 43 43 44 44 45 46 47 48 49 49 49 49 49 49 49 49 49 49 49 49 49 49 49 49 49 49 48 48 48 48 47 47 47 47 48 47 47 47 47 46 46 46 45 45 45 45 45 45 45 45 45 45 46 46 46
Wind_Direction
311 310 309 308 306 305 304 304 303 302 302 301 301 300 300 300 299 299 298 298 296 295 294 294 293 292 290 286 283 282 281 280 278 275 273 269 265 262 259 256 254 253 251 249 247 245 243 241 241 242 240 237 234 233 231 230 229 228 227 226 225 225 225 225 225 226 227 228 228 229 229 229 228 227 226 226 226 225 225 225 226 227 227 227 227
310 309 308 307 305 304 303 303 302 301 301 300 300 299 299 298 298 297 297 296 294 293 293 293 292 291 288 285 282 281 280 279 277 274 272 268 264 261 258 256 254 253 252 250 248 246 244 242 239 239 240 238 235 233 232 231 230 229 228 228 227 226 225 225 225 226 227 228 228 228 229 230 230 230 229 227 226 226 226 225 225 226 227 227 227
309 308 307 306 305 304 303 302 301 301 301 300 299 299 298 297 297 296 296 294 293 292 292 291 291 289 286 283 281 280 279 278 275 273 271 267 263 260 258 256 254 253 252 251 250 247 245 243 241 238 238 239 237 234 232 231 231 230 229 229 228 228 227 227 226 226 227 228 229 229 229 229 230 231 231 230 228 227 226 226 226 226 226 227 228
308 307 306 305 304 303 302 302 301 301 300 300 299 298 297 296 296 295 294 292 291 291 291 290 290 288 285 282 280 279 278 277 274 272 269 266 262 259 257 255 254 253 252 252 251 248 246 245 243 239 237 237 237 236 233 231 230 230 229 229 229 229 228 228 228 227 228 228 229 229 229 229 229 230 232 232 231 230 228 227 227 226 226 226 227
306 305 304 303 303 302 302 301 301 300 299 299 298 297 296 295 295 294 293 291 290 290 290 289 288 286 283 281 279 278 277 275 273 271 269 266 262 258 256 255 254 253 252 252 251 249 247 245 244 242 238 236 236 236 235 233 231 229 229 229 229 229 229 228 228 228 228 229 229 229 229 229 229 229 230 232 233 232 231 229 228 227 227 227 227
306 304 304 303 303 302 302 302 301 300 299 298 297 295 295 294 294 293 291 290 289 289 288 288 286 284 281 280 278 277 276 274 272 270 268 265 261 258 255 254 254 253 253 252 251 250 248 247 245 244 241 237 235 236 236 235 233 230 229 228 228 228 228 228 228 228 229 229 230 230 229 229 228 228 229 230 232 233 233 232 230 229 228 227 227
306 305 304 303 303 303 302 302 301 300 299 298 296 295 294 293 293 291 290 289 288 287 287 286 284 282 280 279 277 276 275 273 271 269 267 263 260 257 255 254 253 253 253 252 252 250 249 248 247 245 243 240 237 236 235 235 234 233 230 229 228 228 228 228 228 228 228 229 230 231 230 229 229 228 228 228 229 231 233 233 233 232 230 229 229
308 306 305 303 303 302 302 302 301 300 298 297 295 294 293 293 292 291 289 288 287 286 285 284 283 281 280 278 276 276 275 273 270 268 265 262 259 257 255 254 253 252 252 252 252 251 250 249 248 246 245 242 240 237 236 235 235 234 233 231 229 228 228 228 228 228 228 228 229 231 231 230 229 229 229 228 228 229 231 232 233 233 232 231 230
309 307 305 304 303 303 302 301 300 298 297 295 294 293 293 292 291 291 289 287 286 285 284 283 282 281 279 277 276 276 274 272 269 267 264 261 259 257 254 253 252 252 252 252 252 251 250 249 248 247 246 244 242 240 238 236 235 235 234 233 231 230 229 228 228 228 228 228 229 230 231 230 229 229 229 229 228 229 230 231 232 233 233 233 232
310 307 305 305 304 304 303 302 299 297 295 294 293 292 292 292 291 290 288 286 285 285 284 282 281 280 278 277 276 276 274 271 268 265 263 261 258 256 254 253 252 251 252 252 252 251 250 249 248 247 247 246 244 242 240 238 236 234 235 234 233 231 230 229 229 228 228 228 229 230 230 231 230 230 229 229 228 229 229 230 231 232 233 233 233
311 308 306 305 305 305 304 302 300 297 295 294 293 292 291 291 290 289 287 286 285 284 283 282 280 279 278 277 276 275 273 270 267 264 262 260 258 256 254 252 251 251 251 251 251 251 250 249 248 247 247 247 245 243 242 240 237 235 234 234 234 233 231 230 229 229 229 229 229 229 230 230 231 230 230 229 228 229 229 230 231 231 232 233 234
313 310 308 307 306 306 305 303 300 298 296 294 293 292 291 291 289 287 286 286 285 284 282 281 280 278 277 276 276 275 273 269 266 263 261 259 257 255 253 252 251 251 251 251 250 250 251 250 248 246 246 247 246 245 243 242 240 237 234 234 234 233 232 231 230 230 229 229 229 230 230 230 231 231 230 230 229 229 229 230 231 231 232 233 233
315 313 310 308 307 306 305 303 301 298 296 294 293 292 291 290 288 286 286 286 284 283 282 280 279 278 276 276 275 274 272 269 265 263 261 259 256 255 253 251 251 251 251 250 250 250 251 251 249 247 246 247 246 245 244 243 242 239 236 234 234 234 233 232 231 230 230 230 230 230 230 231 231 231 231 231 230 229 229 230 230 231 232 232 233
317 315 313 310 309 307 305 303 301 298 296 294 293 292 290 289 287 286 286 285 283 282 281 280 278 277 276 276 275 273 271 268 265 264 261 258 256 254 253 251 251 251 250 250 249 250 251 251 250 248 247 247 247 246 244 243 242 241 238 235 234 233 233 232 231 231 231 230 230 230 230 231 231 231 231 231 231 230 230 230 230 231 231 232 232
320 317 315 313 311 308 306 304 301 299 297 295 294 292 290 288 287 286 286 284 282 281 280 279 277 276 275 275 274 272 269 266 265 264 261 258 256 255 253 252 251 251 250 250 249 250 251 252 252 250 248 248 247 246 244 243 242 241 239 237 235 233 233 232 232 231 231 231 231 231 231 231 231 231 231 232 231 231 230 230 230 230 231 231 232
322 321 319 316 313 310 307 305 302 300 298 296 294 292 290 288 287 287 285 283 281 281 279 278 276 275 274 273 272 271 268 265 264 263 261 258 256 255 254 253 252 251 250 250 249 250 251 252 253 251 250 249 248 247 245 243 242 242 240 238 237 234 233 232 232 232 232 231 231 231 231 231 231 231 231 231 231 231 231 231 231 231 231 231 231
324 323 321 318 315 312 309 306 304 302 299 297 295 292 290 288 287 286 284 282 281 280 279 277 275 274 273 272 271 269 266 264 263 263 260 258 256 255 254 253 252 251 251 250 250 250 251 253 253 253 251 250 249 247 246 244 243 242 241 239 237 236 234 232 231 231 232 232 232 232 232 232 232 231 231 231 231 231 231 231 231 231 231 231 231
325 324 322 320 317 313 311 308 306 304 301 298 295 292 290 289 287 284 282 281 280 279 277 276 274 273 273 272 270 268 264 263 262 262 260 258 257 256 255 253 252 251 251 251 251 251 252 253 254 254 252 251 249 248 247 245 243 243 242 240 238 237 235 233 232 231 231 232 232 232 232 232 233 232 232 231 231 231 231 231 231 231 231 232 232
326 325 323 320 318 314 312 310 307 305 302 299 296 294 292 289 286 284 282 281 280 278 276 274 273 272 272 270 269 266 263 261 261 261 259 258 257 256 255 254 252 251 251 251 252 252 253 253 254 254 253 252 250 249 248 246 244 243 243 241 239 237 236 234 233 232 231 232 232 232 233 233 233 233 232 232 232 232 231 232 232 231 231 231 232
326 325 323 320 318 315 313 311 308 306 303 300 298 295 293 289 286 283 282 280 279 277 275 274 272 272 271 269 268 265 262 261 261 260 259 258 257 257 256 255 253 252 252 252 252 253 253 254 254 254 254 253 251 250 249 247 245 243 243 242 239 238 238 235 233 232 232 232 232 232 233 234 234 234 234 233 233 232 232 232 232 232 232 232 232
326 326 324 321 319 316 314 312 309 306 304 301 299 296 292 288 285 282 281 279 278 276 275 273 272 271 270 268 266 264 261 260 260 259 259 258 258 258 258 256 254 252 252 252 253 253 253 254 254 254 255 255 254 252 250 248 245 243 243 242 240 239 239 237 234 233 233 232 232 232 232 233 234 235 235 234 234 233 233 233 232 232 232 232 233
327 326 325 322 320 317 315 313 310 307 304 301 298 295 291 287 284 281 280 278 277 275 274 272 271 270 268 266 265 263 261 260 259 259 259 259 259 259 258 257 254 253 252 253 253 253 254 254 254 255 255 256 256 254 252 250 247 243 242 242 240 239 240 239 237 235 234 233 233 232 232 232 233 234 235 235 235 234 234 233 233 232 232 232 232
327 326 325 323 320 317 315 313 311 308 304 301 297 294 290 287 284 282 280 278 277 275 274 272 271 268 267 266 264 263 261 259 259 260 260 260 260 259 259 257 255 254 253 254 254 254 254 254 254 255 256 257 257 256 254 252 249 245 242 241 240 240 240 239 238 237 236 234 234 233 232 232 232 233 234 235 235 235 234 234 233 232 232 232 232
325 325 324 322 320 317 315 313 310 308 305 301 298 295 292 289 286 283 281 279 277 275 274 272 270 268 266 265 264 262 260 259 260 261 261 261 260 260 259 258 256 255 254 254 254 254 254 255 255 255 255 256 257 257 255 253 251 247 243 241 240 241 240 239 239 238 238 236 235 234 233 233 232 233 233 234 234 234 234 234 233 232 232 232 232
324 323 322 321 319 316 314 312 310 308 305 302 299 297 294 291 288 284 281 278 277 275 273 271 269 267 266 265 264 262 260 259 260 261 262 261 261 260 259 258 257 256 255 254 255 255 255 255 255 255 255 256 257 257 256 254 252 249 246 242 240 240 241 240 239 239 239 239 237 235 234 233 233 233 233 233 233 233 234 234 234 233 232 232 232
323 322 321 320 319 316 313 311 309 307 305 303 300 297 294 291 287 283 280 278 276 274 272 270 268 266 266 265 264 262 260 260 260 261 262 262 261 260 260 259 258 256 255 255 255 255 255 255 256 256 255 255 256 257 257 256 254 251 248 244 241 240 241 241 240 239 240 240 240 238 236 235 234 233 233 233 233 233 234 235 235 235 234 233 233
321 321 320 320 319 316 312 310 308 306 305 303 300 297 293 290 287 283 280 278 275 273 271 269 267 265 265 264 263 262 261 260 261 262 262 261 261 260 260 260 258 257 256 255 254 254 255 255 255 256 256 255 256 256 257 256 255 253 250 247 243 241 241 241 240 239 239 240 241 241 239 237 236 235 234 234 234 234 234 234 235 235 236 235 234
320 319 319 319 318 316 312 309 307 305 304 302 299 296 293 290 286 283 281 278 275 272 270 268 266 265 264 263 262 261 261 261 261 262 262 261 262 261 260 259 258 257 256 255 254 254 254 254 255 256 256 256 256 256 257 257 256 255 252 249 246 243 241 241 241 240 239 239 241 242 241 240 238 237 236 235 235 234 234 234 234 235 236 236 236
319 319 319 318 318 316 313 309 306 304 303 301 299 296 293 290 287 284 281 278 274 272 269 267 266 264 263 262 262 261 261 261 262 262 262 262 262 261 260 259 258 257 257 255 254 254 254 254 255 255 255 256 256 256 257 257 257 256 254 251 248 246 243 242 242 241 239 239 240 241 242 242 241 239 238 238 237 236 235 235 235 235 235 236 236
319 318 318 318 318 317 314 310 306 303 302 301 299 297 294 291 287 284 281 278 275 272 270 267 266 264 263 263 262 262 262 262 262 262 262 262 262 261 260 259 259 258 257 256 255 254 254 254 254 255 255 255 256 256 257 257 257 257 255 253 250 248 246 245 243 242 241 240 240 241 242 243 243 242 240 240 239 238 237 236 235 235 235 235 236
318 318 317 317 317 317 315 311 307 304 302 300 298 297 294 291 288 284 281 279 276 274 271 269 267 265 264 263 263 263 263 263 263 263 263 263 262 261 260 260 259 259 258 258 257 256 255 254 254 254 255 255 255 255 256 256 257 257 256 255 253 250 248 247 246 244 243 242 241 241 241 243 244 243 242 241 240 240 240 239 238 237 236 236 236
317 317 316 316 316 316 314 311 308 304 302 300 297 295 293 291 288 285 282 279 277 275 273 270 268 265 264 264 264 264 264 264 264 264 264 263 262 261 260 259 259 259 258 258 257 257 256 255 254 254 254 254 254 254 254 255 256 257 257 257 255 253 251 250 248 246 245 243 242 241 241 242 243 244 243 242 241 241 241 241 240 239 238 238 237
316 316 316 315 314 314 313 311 308 305 302 299 296 294 293 291 289 286 282 279 277 275 273 271 269 267 266 265 265 265 265 266 265 265 265 264 263 261 260 259 259 258 257 257 257 256 256 255 254 254 254 254 253 253 254 254 254 255 256 257 256 255 254 253 251 249 247 245 244 243 242 242 242 243 243 243 242 242 242 242 242 242 241 240 239
315 316 315 314 312 312 312 311 309 306 302 299 296 294 292 291 289 286 283 280 277 275 274 272 271 269 268 267 266 267 267 267 267 267 266 266 264 262 260 259 259 258 257 257 257 256 255 254 254 254 253 253 253 253 253 253 254 254 255 255 256 256 256 255 254 253 250 247 245 244 244 243 243 243 243 243 243 243 243 243 243 243 242 242 241
315 314 314 313 311 310 310 310 309 307 304 300 297 294 292 290 288 286 284 282 279 277 275 273 272 271 270 268 268 268 268 268 268 268 268 267 265 263 261 260 259 257 256 256 256 256 255 254 254 254 253 253 253 253 253 253 253 254 254 254 255 256 256 256 256 256 253 251 247 246 245 245 245 244 244 244 243 243 243 244 244 244 244 243 243
314 313 312 312 310 309 308 308 308 307 305 301 298 294 291 289 287 286 284 282 280 278 276 274 272 271 270 269 269 269 269 269 269 269 269 268 266 264 262 261 259 257 256 255 255 255 254 254 254 254 255 255 254 254 254 253 253 253 254 254 255 255 256 256 257 257 256 254 251 248 246 246 245 246 245 245 245 244 244 244 244 244 245 245 244
312 310 309 310 310 309 307 307 307 306 305 303 299 295 292 289 287 285 283 282 280 278 276 274 272 271 271 270 270 270 269 270 270 270 269 269 268 266 264 262 260 259 257 256 255 254 254 254 254 255 255 256 255 255 254 254 254 254 254 254 255 255 256 256 256 257 257 257 255 253 250 248 247 246 247 246 246 246 245 245 245 245 245 245 245
310 308 307 308 309 308 307 306 306 305 304 303 300 297 293 290 287 285 283 281 279 278 276 274 272 271 271 270 270 270 270 270 270 270 270 269 268 267 266 264 262 260 258 257 255 255 254 254 254 255 256 256 256 256 255 255 254 254 254 254 255 256 257 257 257 257 257 257 257 256 254 252 250 249 248 248 248 247 246 246 247 246 246 245 245
309 308 307 307 308 308 306 305 305 304 303 302 300 298 294 290 287 285 282 280 278 277 275 274 272 271 270 269 268 268 269 269 270 270 269 269 268 267 266 265 264 262 260 258 257 255 254 254 254 255 256 256 257 257 256 256 255 255 255 255 255 256 257 258 258 258 258 257 257 256 256 255 254 252 251 250 250 249 249 248 248 248 247 247 247
309 309 309 308 307 307 306 304 303 303 302 301 300 298 295 292 289 285 282 279 277 276 274 273 272 270 268 267 266 266 266 267 268 268 268 268 268 267 266 265 264 263 261 260 258 256 255 254 254 255 255 256 257 257 257 257 257 257 257 256 256 257 257 258 258 259 259 259 258 257 256 255 255 254 254 253 252 252 252 251 250 250 249 249 248
309 309 309 307 306 306 305 304 302 301 300 300 298 297 295 293 290 286 283 280 277 275 274 272 271 270 268 266 265 264 263 263 264 265 266 266 266 266 265 265 264 263 262 260 259 257 256 255 254 254 255 255 256 257 257 257 258 258 258 258 258 258 258 258 258 258 259 259 259 259 258 256 255 254 254 255 254 254 254 254 253 253 252 251 251
310 310 309 307 305 305 304 303 301 300 299 298 297 295 294 293 291 288 285 282 279 276 273 272 270 269 268 267 265 264 262 261 261 262 263 263 263 264 264 263 263 262 261 260 259 258 257 256 255 255 255 255 256 256 257 257 258 258 259 259 259 259 259 259 259 259 259 259 259 259 259 258 257 255 254 254 254 255 255 255 255 255 255 254 254
311 310 309 307 305 304 303 302 301 300 298 296 295 293 292 291 289 288 286 283 280 277 274 272 270 268 267 266 266 264 263 261 260 260 260 261 261 261 261 262 262 261 261 260 259 258 257 257 256 256 256 256 256 256 257 257 258 259 259 260 260 261 261 261 261 261 261 260 259 259 259 259 258 257 256 255 255 254 254 255 255 255 255 255 255
312 310 308 307 305 304 303 302 301 299 298 295 294 292 291 289 288 287 286 284 282 279 276 273 270 268 267 266 266 264 263 262 260 259 259 259 259 259 259 259 260 260 260 259 259 258 258 257 257 256 256 256 257 257 257 258 258 259 260 261 261 262 262 262 262 262 262 262 261 260 259 259 259 259 258 257 257 256 255 255 255 255 255 255 255
312 310 308 307 305 304 302 301 300 299 297 295 293 291 290 288 287 286 285 284 283 281 279 275 271 268 267 267 266 265 264 263 261 260 259 258 258 258 258 258 258 258 259 259 259 258 258 258 257 257 257 257 257 257 258 258 259 259 260 261 262 262 262 263 263 263 263 263 263 262 261 260 260 259 259 259 258 258 258 257 257 256 256 256 255
312 311 309 307 306 304 303 301 299 298 296 293 291 289 288 287 286 285 284 283 282 280 279 277 273 270 267 266 265 265 265 264 263 262 261 260 259 258 258 257 257 257 257 258 258 258 258 258 258 258 257 257 257 257 258 258 258 259 260 261 262 262 263 263 263 263 263 263 263 263 262 262 261 261 260 260 259 259 259 259 258 258 258 257 257
312 310 309 307 305 304 302 300 298 296 295 293 290 288 286 285 284 283 281 281 280 279 278 277 275 272 269 266 264 263 263 262 262 262 262 261 260 259 258 258 257 257 257 257 257 257 257 257 258 258 258 258 258 258 258 258 258 259 259 260 261 262 262 262 263 263 263 263 263 263 262 262 262 261 261 261 261 260 260 260 260 260 259 259 258
311 309 308 307 305 303 302 300 298 295 293 292 290 288 286 284 283 281 280 279 278 277 277 276 275 273 272 269 266 263 262 260 259 259 259 260 260 259 259 258 258 257 257 257 256 256 257 257 257 257 258 258 258 258 258 258 259 259 259 259 260 261 261 262 262 262 262 262 262 262 262 262 261 261 261 261 261 261 261 261 260 261 260 260 260
311 310 309 307 306 304 302 300 298 295 293 291 289 288 286 284 282 280 279 278 277 275 275 274 274 273 271 270 268 265 263 262 260 259 258 258 258 258 258 258 258 258 258 257 257 257 257 257 257 257 257 258 258 258 258 259 259 259 259 259 260 260 261 261 262 262 262 262 262 261 261 261 261 261 261 261 261 261 261 261 261 261 261 261 261
312 310 309 308 306 304 302 300 297 295 294 292 290 288 286 285 283 281 279 277 276 275 273 272 271 271 270 269 268 267 265 263 262 260 259 258 258 257 257 257 257 257 258 258 258 258 258 258 258 258 258 258 258 258 258 258 258 259 259 259 260 260 260 261 261 261 261 261 261 261 261 261 261 261 261 260 260 260 260 260 260 261 261 261 261
311 310 308 307 305 304 302 299 297 295 293 292 290 288 287 285 283 282 280 277 275 274 273 271 270 269 268 267 267 266 265 264 262 261 259 258 257 257 256 256 256 256 256 257 257 257 258 258 258 258 258 258 258 258 258 258 258 258 258 259 259 259 259 260 260 260 261 261 261 261 261 261 261 261 261 260 260 260 260 260 260 260 260 260 261
Height
10187 10179 10172 10165 10158 10151 10144 10137 10131 10124 10119 10114 10109 10104 10099 10095 10091 10087 10083 10080 10076 10071 10067 10063 10061 10059 10056 10052 10050 10047 10045 10043 10042 10040 10039 10039 10039 10038 10038 10038 10038 10039 10040 10042 10043 10045 10047 10048 10049 10049 10050 10054 10057 10061 10065 10070 10075 10082 10089 10096 10102 10110 10118 10126 10133 10137 10142 10151 10159 10167 10176 10186 10197 10207 10215 10226 10236 10245 10255 10266 10275 10286 10296 10306 10316
10170 10160 10153 10147 10140 10134 10127 10121 10115 10109 10105 10100 10094 10090 10085 10081 10077 10074 10071 10067 10063 10059 10056 10052 10050 10048 10044 10041 10040 10037 10035 10034 10032 10030 10029 10029 10029 10029 10028 10028 10028 10029 10031 10032 10034 10036 10038 10040 10041 10041 10041 10044 10048 10051 10054 10058 10063 10068 10074 10081 10088 10095 10104 10112 10119 10124 10128 10135 10145 10153 10161 10171 10181 10189 10197 10208 10218 10227 10237 10249 10259 10269 10279 10289 10297
10153 10143 10134 10128 10122 10117 10111 10105 10099 10094 10090 10085 10080 10075 10072 10068 10064 10061 10059 10054 10050 10047 10044 10042 10039 10037 10034 10031 10029 10027 10025 10024 10022 10021 10020 10020 10020 10019 10019 10018 10019 10020 10021 10022 10024 10026 10029 10031 10032 10033 10034 10035 10038 10042 10044 10048 10051 10056 10061 10067 10073 10079 10088 10096 10104 10111 10115 10120 10129 10138 10147 10157 10165 10172 10180 10191 10200 10210 10221 10232 10242 10252 10262 10271 10280
10138 10128 10119 10112 10106 10100 10095 10090 10085 10080 10075 10071 10066 10061 10058 10054 10051 10048 10046 10042 10038 10035 10033 10031 10029 10026 10023 10021 10019 10017 10016 10014 10012 10011 10011 10010 10010 10010 10009 10009 10009 10010 10012 10013 10014 10017 10019 10021 10022 10024 10025 10027 10029 10032 10034 10038 10041 10045 10049 10054 10059 10065 10072 10080 10088 10095 10101 10105 10112 10122 10132 10142 10151 10158 10166 10175 10184 10193 10204 10214 10225 10235 10245 10254 10262
10125 10114 10104 10097 10091 10084 10079 10075 10071 10066 10061 10056 10052 10047 10044 10041 10038 10035 10032 10029 10026 10023 10021 10020 10018 10016 10013 10011 10009 10007 10006 10004 10003 10002 10001 10001 10001 10001 10000 9999 9999 10001 10002 10003 10004 10007 10009 10011 10012 10014 10016 10019 10021 10022 10024 10027 10031 10034 10038 10043 10047 10052 10059 10066 10073 10080 10087 10091 10096 10105 10117 10127 10136 10145 10153 10160 10168 10175 10185 10196 10207 10216 10226 10236 10245
10112 10101 10091 10083 10076 10069 10064 10060 10056 10052 10047 10042 10038 10034 10030 10028 10025 10023 10019 10017 10014 10012 10010 10008 10007 10005 10003 10001 9999 9998 9996 9995 9993 9993 9992 9992 9991 9991 9990 9990 9990 9992 9993 9993 9995 9997 9999 10000 10002 10003 10006 10010 10012 10013 10014 10016 10019 10023 10028 10032 10036 10041 10047 10053 10061 10067 10073 10078 10081 10088 10100 10112 10121 10130 10139 10147 10153 10159 10168 10178 10188 10198 10208 10217 10226
10097 10087 10077 10068 10061 10054 10049 10045 10041 10037 10033 10029 10024 10020 10017 10015 10012 10010 10007 10004 10002 10001 9999 9998 9997 9995 9993 9991 9989 9988 9987 9985 9984 9984 9983 9982 9982 9981 9981 9981 9982 9983 9983 9984 9986 9987 9989 9990 9991 9994 9996 10000 10003 10003 10004 10005 10008 10011 10016 10020 10025 10029 10035 10041 10048 10055 10060 10065 10067 10072 10082 10095 10105 10113 10123 10132 10139 10145 10152 10161 10170 10179 10188 10198 10207
10082 10072 10063 10054 10047 10040 10035 10031 10026 10022 10018 10014 10011 10007 10004 10002 10000 9997 9995 9992 9990 9989 9988 9987 9986 9984 9983 9981 9979 9978 9977 9976 9975 9975 9974 9973 9972 9972 9972 9972 9973 9974 9974 9975 9977 9978 9979 9980 9981 9984 9987 9990 9992 9993 9994 9995 9997 9999 10003 10007 10012 10017 10023 10029 10035 10041 10047 10051 10055 10057 10065 10077 10088 10097 10106 10114 10123 10131 10137 10143 10150 10158 10167 10178 10189
10069 10058 10049 10041 10034 10028 10023 10018 10012 10008 10004 10000 9997 9994 9991 9989 9987 9985 9983 9980 9979 9978 9976 9976 9975 9973 9972 9970 9969 9968 9968 9967 9966 9966 9965 9964 9963 9963 9964 9964 9964 9965 9965 9967 9968 9970 9970 9970 9972 9974 9977 9980 9982 9983 9984 9985 9987 9989 9991 9995 10000 10005 10011 10016 10022 10028 10033 10038 10042 10044 10050 10061 10071 10080 10089 10097 10107 10114 10119 10124 10132 10141 10151 10162 10172
10055 10045 10036 10028 10021 10015 10010 10005 9999 9995 9991 9987 9984 9981 9978 9976 9975 9973 9971 9969 9967 9966 9965 9965 9964 9962 9961 9960 9959 9959 9958 9958 9957 9956 9955 9955 9954 9955 9955 9956 9956 9956 9957 9958 9960 9961 9961 9961 9963 9965 9968 9970 9971 9973 9974 9975 9977 9980 9981 9984 9988 9992 9997 10003 10009 10014 10019 10024 10028 10032 10037 10045 10054 10063 10072 10080 10089 10095 10101 10109 10119 10128 10136 10144 10154
10042 10032 10023 10015 10008 10002 9997 9992 9986 9982 9978 9975 9972 9969 9967 9965 9963 9961 9959 9957 9956 9955 9954 9954 9953 9952 9950 9949 9949 9949 9949 9949 9948 9947 9946 9946 9946 9946 9947 9947 9947 9947 9948 9950 9952 9952 9952 9952 9954 9957 9959 9960 9961 9962 9964 9965 9967 9970 9972 9973 9976 9980 9985 9990 9995 10001 10006 10010 10015 10019 10024 10030 10037 10046 10055 10063 10072 10079 10086 10095 10104 10111 10117 10127 10138
10029 10020 10011 10004 9997 9990 9985 9979 9974 9970 9966 9963 9960 9957 9955 9954 9952 9950 9948 9947 9946 9944 9944 9943 9943 9941 9940 9939 9939 9939 9940 9940 9939 9938 9937 9937 9938 9938 9939 9939 9938 9939 9940 9942 9943 9943 9943 9944 9946 9949 9951 9950 9951 9953 9954 9955 9957 9960 9962 9964 9966 9969 9973 9977 9982 9987 9991 9996 10001 10005 10010 10015 10022 10030 10038 10047 10056 10065 10073 10079 10086 10094 10103 10115 10124
10016 10008 10000 9992 9985 9979 9973 9968 9963 9959 9955 9952 9949 9946 9945 9943 9941 9939 9937 9936 9935 9934 9933 9933 9932 9931 9930 9930 9930 9930 9930 9931 9930 9929 9928 9929 9929 9930 9930 9930 9930 9931 9932 9934 9935 9934 9934 9935 9937 9941 9942 9941 9942 9944 9945 9946 9947 9949 9952 9954 9955 9958 9961 9965 9969 9973 9977 9982 9987 9992 9997 10002 10008 10015 10023 10030 10039 10050 10058 10065 10073 10082 10091 10102 10110
10004 9996 9989 9982 9975 9968 9962 9957 9953 9949 9945 9942 9939 9936 9935 9933 9930 9928 9927 9926 9925 9924 9924 9923 9922 9921 9920 9920 9920 9921 9922 9922 9921 9920 9920 9920 9921 9921 9921 9922 9922 9923 9924 9926 9926 9926 9926 9926 9929 9932 9933 9933 9933 9935 9936 9937 9937 9939 9941 9943 9945 9947 9950 9953 9957 9961 9964 9969 9974 9979 9985 9990 9995 10001 10008 10015 10024 10035 10044 10051 10059 10067 10075 10084 10092
9992 9985 9978 9971 9965 9958 9952 9947 9943 9939 9935 9932 9929 9927 9925 9922 9920 9919 9918 9916 9915 9914 9914 9914 9912 9912 9911 9911 9911 9912 9913 9913 9912 9911 9911 9912 9912 9912 9913 9913 9914 9915 9916 9917 9917 9917 9917 9918 9920 9922 9924 9924 9925 9926 9927 9928 9929 9929 9931 9932 9934 9937 9940 9942 9946 9949 9953 9957 9961 9966 9972 9976 9981 9988 9995 10001 10008 10017 10026 10034 10042 10048 10057 10065 10073
9981 9973 9966 9960 9954 9948 9943 9938 9934 9930 9926 9922 9920 9917 9915 9912 9911 9909 9908 9906 9905 9905 9905 9904 9903 9903 9902 9902 9903 9904 9905 9904 9903 9903 9903 9904 9904 9904 9904 9905 9906 9907 9908 9909 9909 9909 9909 9910 9911 9913 9915 9916 9916 9917 9918 9920 9920 9920 9921 9923 9924 9927 9929 9932 9935 9938 9941 9944 9949 9954 9958 9963 9969 9976 9982 9988 9993 10000 10008 10018 10025 10032 10040 10047 10055
9969 9963 9955 9949 9943 9937 9932 9928 9924 9921 9917 9913 9910 9908 9905 9903 9902 9900 9899 9897 9896 9896 9896 9895 9894 9894 9894 9894 9894 9896 9896 9896 9895 9895 9896 9896 9896 9895 9896 9897 9898 9899 9900 9900 9901 9901 9902 9902 9902 9904 9906 9907 9908 9908 9910 9911 9911 9911 9912 9913 9915 9917 9919 9922 9924 9927 9929 9933 9936 9941 9946 9950 9956 9963 9969 9974 9979 9986 9994 10002 10010 10016 10023 10030 10038
9960 9953 9946 9940 9933 9928 9923 9919 9915 9911 9908 9904 9901 9899 9896 9895 9893 9891 9890 9888 9888 9887 9887 9887 9886 9885 9885 9885 9886 9888 9888 9888 9887 9888 9888 9888 9888 9887 9888 9889 9890 9891 9892 9892 9892 9893 9894 9894 9894 9895 9897 9898 9899 9900 9901 9902 9903 9903 9903 9904 9906 9907 9909 9911 9914 9916 9919 9922 9925 9929 9933 9938 9943 9950 9956 9961 9966 9973 9980 9987 9994 10001 10008 10015 10022
9952 9945 9938 9931 9926 9920 9914 9910 9906 9903 9899 9896 9893 9890 9888 9886 9885 9883 9881 9880 9880 9879 9879 9878 9878 9878 9877 9877 9878 9880 9880 9880 9880 9881 9881 9880 9880 9880 9880 9881 9883 9884 9884 9883 9884 9885 9885 9885 9886 9887 9888 9890 9891 9891 9892 9893 9894 9894 9894 9895 9897 9898 9899 9900 9903 9907 9909 9912 9915 9919 9922 9926 9931 9937 9942 9947 9953 9959 9965 9972 9979 9986 9993 9999 10003
9944 9938 9931 9924 9918 9913 9907 9902 9898 9895 9891 9888 9885 9883 9880 9878 9876 9874 9873 9872 9872 9871 9871 9870 9870 9870 9870 9870 9871 9872 9873 9873 9873 9873 9873 9872 9872 9872 9873 9874 9876 9876 9876 9876 9876 9877 9877 9877 9878 9879 9880 9881 9882 9883 9883 9884 9886 9886 9885 9887 9889 9889 9888 9890 9895 9898 9900 9902 9906 9909 9912 9916 9920 9924 9930 9935 9940 9945 9951 9957 9964 9972 9978 9982 9986
9935 9929 9923 9916 9910 9905 9900 9895 9891 9887 9884 9880 9877 9875 9873 9870 9868 9867 9866 9865 9864 9864 9863 9863 9863 9863 9862 9863 9864 9865 9865 9865 9865 9866 9865 9865 9865 9865 9865 9867 9869 9869 9868 9868 9869 9869 9869 9869 9870 9871 9871 9872 9873 9874 9875 9876 9877 9878 9878 9878 9880 9879 9878 9881 9886 9888 9890 9893 9896 9899 9902 9906 9909 9912 9917 9922 9927 9932 9938 9944 9951 9958 9963 9968 9972
9926 9920 9914 9908 9902 9897 9893 9888 9884 9880 9877 9873 9870 9867 9865 9863 9861 9860 9859 9858 9857 9856 9856 9856 9856 9856 9855 9855 9856 9857 9858 9858 9858 9858 9858 9858 9858 9858 9858 9860 9861 9861 9861 9861 9861 9862 9862 9862 9862 9863 9863 9864 9864 9865 9866 9867 9868 9870 9871 9870 9870 9869 9869 9872 9877 9879 9882 9884 9886 9889 9892 9896 9899 9902 9906 9910 9915 9921 9926 9932 9938 9945 9949 9954 9958
9916 9911 9906 9900 9894 9889 9885 9881 9877 9873 9869 9866 9863 9860 9857 9856 9854 9853 9852 9851 9850 9849 9849 9849 9849 9849 9848 9849 9849 9850 9851 9851 9850 9851 9851 9851 9850 9851 9851 9853 9854 9854 9854 9854 9854 9854 9854 9854 9855 9856 9856 9856 9856 9857 9858 9858 9859 9861 9863 9863 9862 9861 9861 9864 9867 9870 9872 9874 9877 9880 9883 9886 9889 9892 9896 9900 9905 9909 9913 9917 9923 9928 9933 9937 9942
9907 9903 9898 9893 9888 9882 9878 9874 9869 9865 9862 9859 9856 9853 9851 9849 9847 9846 9845 9844 9843 9842 9842 9842 9842 9841 9841 9842 9843 9843 9844 9844 9843 9844 9844 9844 9844 9844 9844 9845 9846 9847 9847 9847 9847 9846 9846 9847 9848 9849 9849 9849 9848 9849 9849 9850 9851 9853 9855 9855 9854 9853 9853 9856 9858 9860 9862 9865 9868 9870 9873 9876 9879 9882 9886 9890 9893 9895 9897 9901 9906 9911 9916 9921 9925
9900 9895 9890 9886 9881 9875 9871 9866 9862 9858 9855 9852 9849 9846 9844 9842 9841 9839 9838 9837 9836 9836 9835 9835 9835 9834 9834 9835 9836 9836 9837 9837 9837 9837 9837 9837 9837 9837 9837 9838 9839 9840 9840 9840 9840 9839 9839 9839 9840 9841 9841 9842 9841 9841 9841 9842 9843 9844 9846 9847 9847 9846 9846 9847 9850 9852 9854 9856 9858 9861 9863 9866 9869 9872 9875 9878 9880 9882 9885 9888 9892 9897 9902 9906 9911
9893 9888 9883 9878 9874 9869 9864 9860 9855 9852 9848 9845 9843 9840 9838 9836 9834 9832 9831 9830 9829 9829 9829 9828 9828 9827 9827 9828 9829 9829 9830 9830 9830 9831 9831 9831 9830 9830 9830 9831 9832 9833 9833 9833 9833 9832 9832 9832 9833 9833 9834 9834 9834 9834 9833 9834 9835 9836 9838 9839 9839 9839 9839 9840 9842 9844 9846 9847 9848 9851 9854 9856 9858 9861 9864 9866 9870 9873 9876 9879 9882 9885 9890 9894 9898
9886 9881 9876 9871 9866 9862 9857 9853 9849 9845 9842 9839 9836 9834 9831 9829 9827 9826 9825 9824 9823 9822 9822 9821 9821 9820 9820 9821 9821 9822 9823 9823 9824 9824 9824 9824 9823 9823 9824 9824 9825 9825 9826 9826 9826 9825 9825 9825 9825 9826 9826 9827 9827 9827 9826 9826 9827 9829 9830 9831 9831 9832 9832 9833 9834 9836 9838 9839 9840 9841 9843 9846 9848 9850 9853 9856 9860 9864 9866 9869 9871 9874 9878 9882 9886
9878 9874 9869 9864 9859 9856 9851 9846 9842 9839 9835 9833 9830 9828 9826 9823 9821 9820 9819 9817 9816 9815 9815 9814 9814 9813 9813 9813 9814 9815 9815 9816 9817 9817 9817 9817 9817 9817 9818 9818 9818 9818 9819 9819 9819 9819 9818 9818 9818 9818 9819 9819 9819 9819 9819 9819 9820 9821 9822 9823 9823 9824 9825 9825 9827 9829 9830 9831 9832 9832 9834 9835 9838 9841 9844 9847 9851 9854 9856 9858 9861 9864 9867 9871 9874
9870 9865 9861 9857 9852 9848 9844 9840 9836 9832 9829 9826 9824 9822 9819 9817 9815 9814 9812 9811 9809 9808 9808 9807 9807 9806 9806 9806 9807 9807 9808 9809 9810 9810 9810 9810 9810 9811 9811 9811 9811 9812 9812 9813 9812 9812 9812 9812 9811 9811 9811 9812 9812 9812 9812 9812 9812 9813 9815 9815 9816 9817 9817 9818 9819 9821 9823 9824 9824 9824 9825 9826 9828 9832 9835 9838 9841 9844 9846 9848 9851 9854 9857 9859 9862
9861 9856 9851 9848 9844 9841 9837 9833 9829 9825 9822 9820 9817 9815 9813 9811 9809 9807 9805 9804 9802 9802 9801 9800 9800 9799 9799 9799 9799 9800 9800 9802 9802 9802 9802 9803 9803 9804 9804 9804 9804 9805 9805 9805 9805 9805 9805 9805 9805 9804 9804 9805 9805 9805 9805 9805 9805 9806 9807 9808 9809 9809 9810 9811 9812 9813 9815 9816 9817 9817 9818 9818 9819 9823 9826 9829 9832 9834 9835 9838 9841 9843 9845 9848 9851
9853 9847 9842 9838 9835 9832 9829 9825 9821 9818 9815 9813 9811 9809 9806 9804 9802 9800 9798 9797 9796 9795 9794 9793 9793 9792 9792 9792 9792 9792 9793 9794 9795 9795 9795 9796 9797 9797 9797 9797 9797 9798 9798 9798 9798 9798 9798 9798 9798 9798 9798 9798 9798 9799 9799 9798 9798 9799 9799 9800 9802 9802 9803 9804 9805 9806 9807 9809 9809 9810 9810 9811 9812 9814 9817 9820 9822 9823 9825 9828 9831 9833 9835 9839 9842
9844 9840 9834 9829 9826 9824 9821 9818 9814 9811 9808 9806 9804 9802 9800 9798 9796 9794 9792 9790 9789 9788 9787 9787 9786 9785 9785 9785 9785 9785 9786 9787 9788 9788 9788 9789 9790 9790 9790 9790 9790 9791 9791 9791 9790 9791 9791 9791 9791 9791 9792 9792 9792 9792 9792 9792 9792 9792 9792 9793 9794 9795 9796 9797 9798 9799 9800 9801 9802 9803 9803 9804 9805 9806 9808 9811 9813 9814 9816 9818 9821 9823 9826 9829 9833
9835 9831 9826 9821 9817 9815 9813 9810 9807 9804 9801 9798 9796 9794 9793 9791 9789 9787 9786 9784 9782 9781 9781 9780 9779 9779 9778 9778 9778 9778 9779 9779 9780 9781 9781 9782 9783 9783 9783 9783 9783 9784 9784 9784 9784 9784 9784 9785 9785 9785 9785 9785 9785 9786 9786 9786 9786 9786 9786 9786 9787 9788 9789 9789 9790 9792 9793 9794 9795 9795 9796 9797 9798 9799 9801 9803 9804 9805 9807 9809 9811 9813 9816 9819 9823
9824 9821 9819 9814 9809 9806 9804 9802 9799 9796 9794 9791 9789 9787 9785 9784 9782 9780 9779 9777 9776 9775 9774 9773 9772 9772 9771 9771 9771 9771 9772 9772 9773 9773 9774 9775 9775 9776 9776 9776 9776 9777 9777 9777 9777 9777 9778 9778 9778 9778 9779 9779 9779 9779 9780 9780 9780 9780 9780 9780 9781 9781 9782 9782 9783 9784 9786 9787 9788 9788 9789 9790 9791 9792 9793 9795 9796 9797 9798 9800 9802 9804 9806 9809 9813
9813 9810 9809 9806 9802 9798 9795 9793 9791 9788 9786 9783 9781 9779 9777 9776 9774 9773 9772 9770 9769 9768 9767 9766 9765 9765 9764 9764 9764 9764 9765 9765 9765 9766 9766 9767 9768 9769 9768 9769 9769 9770 9770 9770 9770 9770 9771 9771 9771 9771 9772 9772 9773 9773 9773 9773 9774 9774 9774 9774 9775 9775 9775 9776 9776 9777 9778 9779 9780 9781 9782 9783 9784 9785 9786 9787 9789 9790 9791 9792 9794 9795 9797 9800 9803
9804 9800 9798 9797 9794 9791 9787 9784 9782 9780 9778 9776 9773 9771 9770 9768 9767 9765 9764 9763 9762 9761 9760 9759 9758 9758 9757 9757 9757 9757 9757 9757 9758 9758 9759 9760 9761 9761 9761 9761 9762 9762 9763 9763 9763 9763 9764 9764 9764 9764 9765 9765 9766 9766 9767 9767 9767 9768 9768 9768 9768 9769 9769 9770 9770 9771 9771 9772 9773 9774 9775 9776 9777 9778 9779 9780 9781 9782 9783 9785 9786 9787 9789 9791 9794
9798 9794 9789 9787 9785 9782 9779 9776 9774 9772 9770 9767 9766 9764 9762 9760 9759 9758 9757 9756 9755 9754 9753 9752 9752 9751 9750 9750 9750 9750 9750 9750 9751 9751 9752 9753 9753 9753 9754 9754 9755 9755 9756 9756 9756 9756 9757 9757 9757 9758 9758 9758 9759 9760 9760 9760 9761 9761 9762 9762 9762 9763 9763 9763 9764 9764 9765 9765 9766 9767 9768 9769 9770 9771 9772 9773 9774 9775 9776 9777 9778 9779 9781 9783 9785
9791 9788 9783 9779 9776 9774 9771 9768 9765 9763 9761 9759 9758 9756 9754 9752 9751 9750 9749 9748 9747 9747 9746 9745 9745 9744 9744 9743 9743 9743 9743 9743 9743 9744 9745 9745 9746 9746 9746 9747 9747 9748 9748 9749 9749 9749 9750 9750 9750 9751 9751 9752 9752 9753 9753 9754 9754 9755 9756 9756 9756 9756 9757 9757 9758 9758 9759 9759 9759 9760 9761 9761 9763 9764 9764 9765 9767 9768 9769 9770 9771 9772 9773 9775 9777
9781 9778 9775 9771 9768 9766 9763 9760 9757 9755 9753 9751 9749 9748 9746 9745 9743 9742 9741 9740 9740 9739 9738 9738 9737 9737 9737 9736 9736 9736 9736 9736 9736 9737 9737 9738 9738 9739 9739 9739 9740 9740 9741 9742 9742 9742 9743 9743 9743 9744 9744 9745 9745 9746 9746 9747 9748 9748 9749 9750 9750 9751 9751 9751 9751 9752 9752 9753 9753 9753 9754 9755 9755 9756 9757 9758 9759 9760 9762 9763 9764 9764 9765 9767 9768
9772 9769 9765 9762 9759 9757 9755 9752 9749 9746 9744 9742 9741 9739 9738 9736 9735 9734 9733 9732 9731 9731 9730 9730 9730 9729 9729 9729 9729 9729 9729 9729 9729 9729 9730 9730 9731 9731 9732 9732 9732 9733 9733 9734 9735 9735 9736 9736 9737 9737 9738 9738 9738 9739 9740 9740 9741 9742 9742 9743 9744 9744 9745 9745 9745 9745 9746 9746 9747 9747 9748 9748 9749 9749 9750 9751 9752 9753 9754 9755 9756 9757 9758 9759 9760
9764 9760 9757 9753 9750 9748 9746 9744 9741 9739 9736 9734 9732 9731 9729 9728 9726 9725 9724 9724 9723 9723 9722 9722 9721 9721 9721 9721 9721 9721 9721 9721 9721 9721 9722 9722 9723 9723 9724 9724 9725 9725 9726 9727 9727 9728 9729 9729 9730 9730 9731 9731 9732 9732 9733 9733 9734 9735 9735 9736 9737 9738 9739 9739 9739 9740 9740 9740 9740 9741 9741 9742 9743 9743 9744 9744 9745 9746 9747 9748 9748 9749 9750 9751 9752
9755 9752 9749 9746 9742 9740 9738 9736 9733 9731 9728 9726 9724 9723 9721 9719 9718 9717 9716 9715 9714 9714 9714 9714 9713 9713 9713 9712 9712 9713 9713 9713 9713 9713 9714 9714 9715 9715 9716 9716 9717 9717 9718 9719 9720 9721 9721 9722 9723 9723 9724 9724 9725 9726 9726 9727 9728 9728 9729 9729 9730 9731 9732 9732 9733 9733 9734 9734 9734 9734 9735 9735 9736 9737 9738 9738 9739 9739 9740 9741 9741 9742 9743 9744 9744
9747 9743 9740 9738 9735 9731 9729 9727 9725 9723 9720 9718 9716 9714 9713 9711 9710 9708 9707 9706 9705 9705 9706 9706 9705 9705 9704 9704 9704 9704 9705 9705 9705 9705 9706 9706 9707 9707 9708 9708 9709 9710 9710 9711 9712 9713 9714 9714 9715 9716 9716 9717 9718 9719 9719 9720 9721 9721 9722 9723 9723 9724 9725 9725 9726 9727 9727 9728 9728 9729 9729 9729 9730 9730 9731 9732 9732 9733 9734 9734 9735 9736 9736 9737 9737
9740 9736 9732 9729 9727 9724 9720 9717 9716 9714 9712 9710 9708 9706 9704 9703 9701 9700 9699 9697 9696 9696 9696 9697 9697 9697 9696 9695 9695 9696 9696 9696 9696 9697 9698 9698 9699 9699 9700 9701 9701 9702 9702 9703 9704 9705 9706 9707 9707 9708 9709 9709 9710 9711 9712 9712 9713 9714 9715 9715 9716 9717 9718 9718 9719 9720 9720 9721 9722 9722 9722 9723 9723 9724 9724 9725 9725 9726 9727 9728 9728 9729 9730 9730 9731
9731 9728 9724 9721 9718 9715 9712 9709 9706 9705 9703 9702 9699 9697 9696 9694 9693 9692 9690 9689 9688 9687 9687 9688 9689 9689 9688 9687 9687 9687 9687 9687 9688 9688 9689 9690 9690 9691 9692 9693 9693 9694 9695 9695 9696 9697 9698 9699 9699 9700 9701 9702 9703 9703 9704 9705 9705 9706 9707 9708 9708 9709 9710 9711 9712 9713 9713 9714 9714 9715 9715 9716 9717 9717 9718 9718 9718 9719 9720 9720 9721 9722 9723 9723 9724
9721 9718 9715 9711 9708 9705 9703 9700 9697 9695 9694 9693 9691 9689 9687 9686 9684 9683 9682 9681 9680 9679 9678 9678 9678 9679 9680 9680 9679 9679 9679 9679 9679 9679 9680 9681 9682 9683 9683 9684 9685 9686 9687 9687 9688 9689 9690 9691 9692 9692 9693 9694 9695 9696 9696 9697 9698 9698 9699 9700 9701 9702 9703 9704 9705 9705 9706 9707 9707 9707 9708 9709 9709 9710 9710 9711 9711 9712 9713 9713 9714 9714 9715 9716 9717
9712 9708 9705 9702 9699 9696 9693 9691 9689 9686 9684 9683 9682 9680 9679 9677 9675 9674 9673 9672 9671 9670 9669 9669 9668 9669 9670 9671 9671 9671 9671 9671 9671 9671 9671 9672 9673 9674 9675 9676 9677 9677 9678 9679 9680 9681 9682 9683 9684 9685 9685 9686 9687 9688 9689 9690 9690 9691 9692 9692 9693 9694 9695 9696 9697 9698 9699 9699 9700 9700 9701 9701 9702 9702 9703 9704 9704 9705 9705 9706 9706 9707 9707 9708 9709
9703 9700 9696 9693 9690 9687 9684 9682 9680 9678 9675 9674 9672 9670 9669 9668 9666 9665 9664 9663 9662 9661 9660 9660 9659 9659 9660 9660 9661 9662 9662 9662 9662 9662 9663 9663 9664 9665 9666 9667 9668 9669 9670 9671 9672 9672 9673 9674 9676 9677 9678 9678 9679 9680 9681 9682 9682 9683 9684 9685 9686 9686 9687 9688 9689 9690 9691 9691 9692 9693 9693 9694 9694 9695 9696 9696 9697 9697 9698 9698 9699 9699 9700 9700 9701
9694 9690 9686 9683 9680 9678 9675 9673 9670 9668 9666 9664 9663 9661 9659 9658 9657 9656 9655 9654 9653 9652 9651 9650 9650 9650 9650 9650 9651 9652 9652 9653 9653 9654 9654 9654 9655 9656 9657 9658 9659 9659 9660 9662 9663 9664 9665 9666 9667 9668 9669 9670 9671 9672 9673 9674 9675 9675 9676 9677 9678 9678 9679 9680 9681 9681 9682 9683 9684 9685 9685 9686 9687 9687 9688 9689 9689 9689 9690 9691 9691 9691 9692 9692 9693
9685 9681 9677 9673 9670 9668 9665 9663 9661 9658 9656 9654 9653 9651 9650 9648 9647 9646 9645 9644 9643 9642 9642 9641 9641 9641 9640 9641 9641 9642 9642 9643 9644 9645 9645 9646 9646 9647 9647 9648 9649 9650 9651 9652 9653 9654 9656 9657 9658 9659 9660 9661 9662 9663 9664 9665 9666 9667 9668 9669 9669 9670 9671 9672 9672 9673 9674 9675 9675 9676 9677 9678 9678 9679 9680 9680 9681 9682 9682 9683 9683 9684 9684 9685 9685
9676 9672 9669 9665 9662 9658 9656 9654 9652 9649 9647 9645 9643 9641 9640 9639 9637 9636 9635 9635 9634 9633 9632 9632 9632 9631 9631 9631 9631 9632 9632 9633 9634 9635 9636 9637 9637 9638 9638 9639 9640 9641 9642 9643 9644 9645 9646 9647 9648 9650 9651 9652 9653 9654 9655 9656 9657 9658 9659 9660 9661 9662 9662 9663 9664 9665 9665 9666 9667 9667 9668 9669 9670 9670 9671 9672 9672 9673 9674 9675 9675 9676 9677 9677 9677